| time (UTC) | temp F | wind direction | speed MPH | gust MPH | rain 1hr in | rain 24hr in | rain mn in | humidity % | barometer mb |
| 20260507090555 | 61 | 226 | 0.0 | 0.0 | 0.00 | 0.37 | 0.10 | 98 | 1010.9 |
| 20260507090054 | 61 | 226 | 0.0 | 0.0 | 0.00 | 0.37 | 0.10 | 98 | 1011.1 |
| 20260507085554 | 61 | 226 | 0.0 | 1.0 | 0.00 | 0.37 | 0.10 | 98 | 1010.9 |
| 20260507085054 | 61 | 226 | 0.0 | 1.0 | 0.00 | 0.37 | 0.10 | 98 | 1010.9 |
| 20260507084554 | 61 | 226 | 0.0 | 0.0 | 0.00 | 0.37 | 0.10 | 97 | 1011.0 |
| 20260507084052 | 61 | 226 | 0.0 | 1.0 | 0.00 | 0.37 | 0.10 | 97 | 1011.2 |
| 20260507083552 | 61 | 259 | 0.0 | 3.0 | 0.00 | 0.37 | 0.10 | 97 | 1011.1 |
| 20260507083052 | 62 | 275 | 0.0 | 3.0 | 0.00 | 0.37 | 0.10 | 97 | 1011.1 |
| 20260507082551 | 62 | 281 | 0.0 | 0.0 | 0.00 | 0.37 | 0.10 | 98 | 1011.0 |
| 20260507082053 | 62 | 281 | 0.0 | 0.0 | 0.00 | 0.37 | 0.10 | 97 | 1011.0 |
| 20260507081550 | 62 | 283 | 0.0 | 0.0 | 0.00 | 0.37 | 0.10 | 97 | 1011.2 |
| 20260507081050 | 62 | 283 | 0.0 | 0.0 | 0.00 | 0.37 | 0.10 | 97 | 1011.4 |
| 20260507080550 | 62 | 275 | 0.0 | 0.0 | 0.00 | 0.37 | 0.10 | 97 | 1011.1 |
| 20260507080053 | 62 | 275 | 0.0 | 0.0 | 0.01 | 0.37 | 0.10 | 98 | 1011.2 |
| 20260507075551 | 62 | 275 | 0.0 | 2.0 | 0.01 | 0.37 | 0.10 | 98 | 1011.3 |
| 20260507075051 | 62 | 275 | 0.0 | 2.0 | 0.01 | 0.37 | 0.10 | 98 | 1011.0 |
| 20260507074548 | 62 | 312 | 0.0 | 0.0 | 0.01 | 0.37 | 0.10 | 98 | 1011.1 |
| 20260507074048 | 62 | 312 | 0.0 | 0.0 | 0.01 | 0.37 | 0.10 | 98 | 1011.0 |
| 20260507073549 | 62 | 312 | 0.0 | 0.0 | 0.01 | 0.37 | 0.10 | 98 | 1010.9 |
| 20260507073049 | 62 | 312 | 0.0 | 0.0 | 0.01 | 0.37 | 0.10 | 98 | 1010.9 |
| 20260507072548 | 62 | 312 | 0.0 | 0.0 | 0.01 | 0.37 | 0.10 | 98 | 1011.0 |
| 20260507072049 | 62 | 312 | 0.0 | 0.0 | 0.01 | 0.37 | 0.10 | 98 | 1011.1 |
| 20260507071604 | 62 | 312 | 0.0 | 0.0 | 0.01 | 0.37 | 0.10 | 97 | 1011.1 |
| 20260507071046 | 62 | 312 | 0.0 | 0.0 | 0.01 | 0.37 | 0.10 | 97 | 1011.4 |
| 20260507070545 | 62 | 312 | 0.0 | 0.0 | 0.01 | 0.37 | 0.10 | 97 | 1011.5 |
| 20260507070045 | 62 | 312 | 0.0 | 0.0 | 0.00 | 0.36 | 0.09 | 97 | 1011.4 |
| 20260507065644 | 62 | 312 | 0.0 | 0.0 | 0.00 | 0.36 | 0.09 | 97 | 1011.5 |
| 20260507065042 | 62 | 312 | 0.0 | 0.0 | 0.00 | 0.36 | 0.09 | 97 | 1011.7 |
| 20260507064542 | 62 | 312 | 0.0 | 0.0 | 0.00 | 0.36 | 0.09 | 97 | 1012.1 |
| 20260507064042 | 63 | 312 | 0.0 | 0.0 | 0.00 | 0.36 | 0.09 | 97 | 1012.1 |
| 20260507063541 | 63 | 312 | 0.0 | 0.0 | 0.00 | 0.36 | 0.09 | 97 | 1012.3 |
| 20260507063045 | 63 | 312 | 0.0 | 0.0 | 0.00 | 0.36 | 0.09 | 97 | 1012.4 |
| 20260507062541 | 63 | 312 | 0.0 | 0.0 | 0.01 | 0.36 | 0.09 | 97 | 1012.2 |
| 20260507062041 | 63 | 312 | 0.0 | 0.0 | 0.02 | 0.36 | 0.09 | 97 | 1012.2 |
| 20260507061541 | 63 | 312 | 0.0 | 0.0 | 0.02 | 0.36 | 0.09 | 97 | 1012.1 |
| 20260507061040 | 63 | 312 | 0.0 | 0.0 | 0.03 | 0.36 | 0.09 | 97 | 1012.1 |
| 20260507060538 | 63 | 312 | 0.0 | 0.0 | 0.03 | 0.36 | 0.09 | 97 | 1012.1 |
| 20260507060039 | 63 | 312 | 0.0 | 0.0 | 0.04 | 0.36 | 0.09 | 97 | 1012.6 |
| 20260507055538 | 63 | 312 | 0.0 | 0.0 | 0.05 | 0.36 | 0.09 | 97 | 1012.9 |
| 20260507055037 | 63 | 312 | 0.0 | 0.0 | 0.05 | 0.36 | 0.09 | 97 | 1012.9 |
| 20260507054537 | 63 | 312 | 0.0 | 0.0 | 0.06 | 0.36 | 0.09 | 97 | 1013.0 |
| 20260507054037 | 63 | 312 | 0.0 | 0.0 | 0.06 | 0.36 | 0.09 | 97 | 1012.8 |
| 20260507053538 | 63 | 312 | 0.0 | 1.0 | 0.06 | 0.36 | 0.09 | 97 | 1012.7 |
| 20260507053104 | 63 | 312 | 0.0 | 2.0 | 0.06 | 0.36 | 0.09 | 97 | 1012.9 |
| 20260507052537 | 63 | 250 | 0.0 | 0.0 | 0.06 | 0.35 | 0.08 | 97 | 1013.3 |
| 20260507052034 | 63 | 112 | 0.0 | 0.0 | 0.06 | 0.34 | 0.07 | 97 | 1013.6 |
| 20260507051541 | 63 | 203 | 0.0 | 0.0 | 0.07 | 0.34 | 0.07 | 97 | 1013.9 |
| 20260507051032 | 63 | 203 | 0.0 | 0.0 | 0.06 | 0.33 | 0.06 | 97 | 1013.8 |
| 20260507050532 | 63 | 72 | 0.0 | 0.0 | 0.06 | 0.33 | 0.06 | 97 | 1013.4 |
| 20260507050036 | 63 | 72 | 0.0 | 0.0 | 0.05 | 0.32 | 0.05 | 97 | 1013.9 |
| 20260507045532 | 63 | 72 | 0.0 | 0.0 | 0.04 | 0.31 | 0.04 | 97 | 1013.6 |
| 20260507045032 | 63 | 107 | 0.0 | 0.0 | 0.04 | 0.31 | 0.04 | 97 | 1013.5 |
| 20260507044532 | 63 | 208 | 0.0 | 0.0 | 0.03 | 0.30 | 0.03 | 97 | 1014.2 |
| 20260507044030 | 63 | 208 | 0.0 | 0.0 | 0.03 | 0.30 | 0.03 | 97 | 1014.1 |
| 20260507043530 | 63 | 203 | 0.0 | 0.0 | 0.03 | 0.30 | 0.03 | 97 | 1013.8 |
| 20260507043031 | 63 | 65 | 0.0 | 0.0 | 0.04 | 0.30 | 0.03 | 97 | 1013.6 |
| 20260507042533 | 63 | 65 | 0.0 | 0.0 | 0.03 | 0.28 | 0.02 | 97 | 1013.9 |
| 20260507042029 | 63 | 65 | 0.0 | 0.0 | 0.02 | 0.28 | 0.01 | 97 | 1013.8 |
| 20260507041529 | 63 | 65 | 0.0 | 0.0 | 0.01 | 0.27 | 0.00 | 97 | 1013.9 |
| 20260507041029 | 63 | 65 | 0.0 | 0.0 | 0.01 | 0.27 | 0.00 | 97 | 1013.7 |
| 20260507040527 | 64 | 64 | 0.0 | 0.0 | 0.01 | 0.27 | 0.00 | 97 | 1013.6 |
| 20260507040029 | 64 | 64 | 0.0 | 0.0 | 0.01 | 0.27 | 0.00 | 97 | 1013.4 |
| 20260507035526 | 64 | 82 | 0.0 | 0.0 | 0.01 | 0.27 | 0.27 | 97 | 1013.0 |
| 20260507035027 | 64 | 86 | 0.0 | 0.0 | 0.01 | 0.27 | 0.27 | 97 | 1013.2 |
| 20260507034535 | 64 | 33 | 0.0 | 0.0 | 0.01 | 0.27 | 0.27 | 97 | 1013.4 |
| 20260507034026 | 64 | 33 | 0.0 | 0.0 | 0.02 | 0.27 | 0.27 | 97 | 1013.5 |
| 20260507033526 | 64 | 33 | 0.0 | 0.0 | 0.02 | 0.27 | 0.27 | 97 | 1013.4 |
| 20260507033038 | 64 | 33 | 0.0 | 0.0 | 0.01 | 0.26 | 0.26 | 97 | 1013.4 |
| 20260507032525 | 64 | 33 | 0.0 | 0.0 | 0.02 | 0.26 | 0.26 | 97 | 1013.3 |
| 20260507032026 | 64 | 67 | 0.0 | 0.0 | 0.02 | 0.26 | 0.26 | 97 | 1012.7 |
| 20260507031526 | 64 | 152 | 0.0 | 0.0 | 0.02 | 0.26 | 0.26 | 97 | 1012.8 |
| 20260507031026 | 64 | 221 | 0.0 | 0.0 | 0.03 | 0.26 | 0.26 | 97 | 1013.1 |
| 20260507030525 | 64 | 58 | 0.0 | 2.0 | 0.03 | 0.26 | 0.26 | 97 | 1013.0 |
| 20260507030028 | 64 | 130 | 0.0 | 3.0 | 0.03 | 0.26 | 0.26 | 97 | 1012.7 |
| 20260507025525 | 64 | 269 | 1.0 | 4.0 | 0.03 | 0.26 | 0.26 | 97 | 1012.9 |
| 20260507025024 | 64 | 90 | 0.0 | 4.0 | 0.04 | 0.26 | 0.26 | 97 | 1012.3 |
| 20260507024524 | 64 | 63 | 0.0 | 4.0 | 0.04 | 0.26 | 0.26 | 97 | 1012.5 |
| 20260507024027 | 64 | 115 | 2.0 | 4.0 | 0.03 | 0.25 | 0.25 | 97 | 1012.7 |
| 20260507023523 | 64 | 153 | 0.0 | 1.0 | 0.04 | 0.25 | 0.25 | 97 | 1013.9 |
| 20260507023027 | 64 | 254 | 0.0 | 0.0 | 0.04 | 0.24 | 0.24 | 96 | 1014.3 |
| 20260507022524 | 64 | 254 | 0.0 | 0.0 | 0.04 | 0.24 | 0.24 | 96 | 1014.4 |
| 20260507022024 | 64 | 254 | 0.0 | 0.0 | 0.05 | 0.24 | 0.24 | 96 | 1014.4 |
| 20260507021523 | 64 | 254 | 0.0 | 0.0 | 0.05 | 0.24 | 0.24 | 96 | 1014.2 |
| 20260507021026 | 64 | 254 | 0.0 | 0.0 | 0.04 | 0.23 | 0.23 | 96 | 1014.0 |
| 20260507020523 | 64 | 254 | 0.0 | 0.0 | 0.04 | 0.23 | 0.23 | 96 | 1014.3 |
| 20260507020024 | 64 | 254 | 0.0 | 0.0 | 0.04 | 0.23 | 0.23 | 96 | 1014.2 |
| 20260507015522 | 64 | 254 | 0.0 | 0.0 | 0.03 | 0.22 | 0.22 | 96 | 1014.1 |
| 20260507015024 | 64 | 254 | 0.0 | 0.0 | 0.04 | 0.22 | 0.22 | 96 | 1013.9 |
| 20260507014626 | 64 | 254 | 0.0 | 0.0 | 0.04 | 0.22 | 0.22 | 96 | 1013.5 |
| 20260507014022 | 64 | 254 | 0.0 | 0.0 | 0.05 | 0.22 | 0.22 | 96 | 1013.5 |
| 20260507013521 | 64 | 254 | 0.0 | 0.0 | 0.05 | 0.21 | 0.21 | 96 | 1013.6 |
| 20260507013022 | 65 | 254 | 0.0 | 0.0 | 0.04 | 0.20 | 0.20 | 96 | 1013.7 |
| 20260507012521 | 65 | 254 | 0.0 | 3.0 | 0.05 | 0.20 | 0.20 | 96 | 1013.9 |
| 20260507012021 | 65 | 254 | 0.0 | 3.0 | 0.04 | 0.19 | 0.19 | 96 | 1014.1 |
| 20260507011522 | 64 | 252 | 0.0 | 3.0 | 0.06 | 0.19 | 0.19 | 96 | 1014.2 |
| 20260507011021 | 64 | 221 | 0.0 | 0.0 | 0.07 | 0.19 | 0.19 | 96 | 1013.6 |
| 20260507010521 | 64 | 221 | 0.0 | 0.0 | 0.08 | 0.19 | 0.19 | 96 | 1013.3 |
| 20260507010025 | 64 | 221 | 0.0 | 0.0 | 0.09 | 0.19 | 0.19 | 96 | 1013.1 |
| 20260507005521 | 65 | 221 | 0.0 | 0.0 | 0.11 | 0.19 | 0.19 | 96 | 1013.0 |
| 20260507005020 | 65 | 221 | 0.0 | 0.0 | 0.10 | 0.18 | 0.18 | 96 | 1012.7 |
| 20260507004527 | 65 | 221 | 0.0 | 0.0 | 0.11 | 0.18 | 0.18 | 95 | 1012.7 |
| 20260507004020 | 65 | 221 | 0.0 | 0.0 | 0.10 | 0.17 | 0.17 | 95 | 1012.7 |
| 20260507003520 | 65 | 221 | 0.0 | 1.0 | 0.09 | 0.16 | 0.16 | 95 | 1012.7 |
| 20260507003019 | 65 | 221 | 0.0 | 2.0 | 0.09 | 0.16 | 0.16 | 95 | 1013.1 |
| 20260507002520 | 65 | 221 | 0.0 | 1.0 | 0.08 | 0.15 | 0.15 | 95 | 1013.2 |
| 20260507002023 | 65 | 221 | 0.0 | 0.0 | 0.08 | 0.15 | 0.15 | 95 | 1013.1 |
| 20260507001518 | 65 | 221 | 0.0 | 0.0 | 0.06 | 0.13 | 0.13 | 95 | 1013.4 |
| 20260507001018 | 65 | 221 | 0.0 | 0.0 | 0.04 | 0.11 | 0.11 | 94 | 1013.2 |
| 20260507000517 | 65 | 219 | 0.0 | 0.0 | 0.04 | 0.11 | 0.11 | 94 | 1013.2 |
| 20260507000018 | 65 | 219 | 0.0 | 0.0 | 0.03 | 0.10 | 0.10 | 94 | 1013.5 |
| 20260506235517 | 65 | 213 | 0.0 | 0.0 | 0.01 | 0.08 | 0.08 | 94 | 1013.6 |
| 20260506235016 | 65 | 218 | 0.0 | 0.0 | 0.02 | 0.08 | 0.08 | 94 | 1013.5 |
| 20260506234516 | 65 | 218 | 0.0 | 0.0 | 0.01 | 0.07 | 0.07 | 94 | 1013.1 |
| 20260506234016 | 65 | 162 | 0.0 | 0.0 | 0.01 | 0.07 | 0.07 | 94 | 1012.9 |
| 20260506233516 | 65 | 182 | 0.0 | 0.0 | 0.01 | 0.07 | 0.07 | 93 | 1012.9 |
| 20260506233016 | 66 | 182 | 0.0 | 0.0 | 0.01 | 0.07 | 0.07 | 93 | 1012.9 |
| 20260506232515 | 66 | 182 | 0.0 | 0.0 | 0.01 | 0.07 | 0.07 | 93 | 1012.7 |
| 20260506232015 | 66 | 182 | 0.0 | 0.0 | 0.01 | 0.07 | 0.07 | 93 | 1012.7 |
| 20260506231515 | 66 | 83 | 0.0 | 0.0 | 0.01 | 0.07 | 0.07 | 93 | 1012.4 |
| 20260506231014 | 66 | 83 | 0.0 | 0.0 | 0.01 | 0.07 | 0.07 | 92 | 1012.5 |
| 20260506230514 | 66 | 83 | 0.0 | 0.0 | 0.01 | 0.07 | 0.07 | 92 | 1012.4 |
| 20260506230014 | 66 | 82 | 0.0 | 0.0 | 0.01 | 0.07 | 0.07 | 92 | 1012.6 |
| 20260506225516 | 66 | 82 | 0.0 | 0.0 | 0.01 | 0.07 | 0.07 | 91 | 1012.6 |
| 20260506225017 | 67 | 147 | 0.0 | 0.0 | 0.00 | 0.06 | 0.06 | 90 | 1012.8 |
| 20260506224516 | 67 | 212 | 0.0 | 0.0 | 0.00 | 0.06 | 0.06 | 90 | 1012.9 |
| 20260506224013 | 67 | 212 | 0.0 | 0.0 | 0.00 | 0.06 | 0.06 | 89 | 1013.1 |
| 20260506223517 | 67 | 212 | 0.0 | 0.0 | 0.00 | 0.06 | 0.06 | 89 | 1012.9 |
| 20260506223013 | 67 | 212 | 0.0 | 0.0 | 0.00 | 0.06 | 0.06 | 89 | 1012.8 |
| 20260506222513 | 67 | 212 | 0.0 | 0.0 | 0.00 | 0.06 | 0.06 | 88 | 1012.7 |
| 20260506222013 | 67 | 212 | 0.0 | 0.0 | 0.00 | 0.06 | 0.06 | 87 | 1012.8 |
| 20260506221512 | 67 | 214 | 0.0 | 0.0 | 0.00 | 0.06 | 0.06 | 86 | 1012.9 |
| 20260506221012 | 68 | 211 | 0.0 | 0.0 | 0.00 | 0.06 | 0.06 | 85 | 1013.0 |
| 20260506220512 | 68 | 211 | 0.0 | 0.0 | 0.00 | 0.06 | 0.06 | 84 | 1013.0 |
| 20260506220028 | 68 | 219 | 0.0 | 3.0 | 0.00 | 0.06 | 0.06 | 83 | 1013.2 |
| 20260506215512 | 69 | 226 | 0.0 | 3.0 | 0.00 | 0.06 | 0.06 | 82 | 1013.2 |
| 20260506215012 | 69 | 247 | 0.0 | 4.0 | 0.00 | 0.06 | 0.06 | 82 | 1013.1 |
| 20260506214512 | 69 | 239 | 0.0 | 4.0 | 0.00 | 0.06 | 0.06 | 80 | 1013.3 |
| 20260506214012 | 69 | 263 | 0.0 | 4.0 | 0.00 | 0.06 | 0.06 | 80 | 1013.1 |
| 20260506213511 | 70 | 205 | 1.0 | 3.0 | 0.00 | 0.06 | 0.06 | 79 | 1013.2 |
| 20260506213011 | 70 | 213 | 1.0 | 3.0 | 0.00 | 0.06 | 0.06 | 79 | 1013.3 |
| 20260506212514 | 70 | 261 | 0.0 | 4.0 | 0.00 | 0.06 | 0.06 | 78 | 1013.2 |
| 20260506212011 | 70 | 215 | 0.0 | 4.0 | 0.00 | 0.06 | 0.06 | 79 | 1013.0 |
| 20260506211511 | 70 | 248 | 1.0 | 3.0 | 0.00 | 0.06 | 0.06 | 79 | 1013.0 |
| 20260506211011 | 70 | 258 | 0.0 | 4.0 | 0.00 | 0.06 | 0.06 | 80 | 1012.9 |
| 20260506210509 | 70 | 209 | 0.0 | 5.0 | 0.00 | 0.06 | 0.06 | 78 | 1012.6 |
| 20260506210013 | 70 | 266 | 2.0 | 5.0 | 0.00 | 0.06 | 0.06 | 78 | 1012.6 |
| 20260506205510 | 70 | 199 | 1.0 | 6.0 | 0.00 | 0.06 | 0.06 | 78 | 1012.6 |
| 20260506205010 | 70 | 228 | 1.0 | 6.0 | 0.00 | 0.06 | 0.06 | 77 | 1012.7 |
| 20260506204510 | 70 | 242 | 1.0 | 8.0 | 0.00 | 0.06 | 0.06 | 78 | 1012.5 |
| 20260506204012 | 70 | 150 | 3.0 | 8.0 | 0.00 | 0.06 | 0.06 | 77 | 1012.5 |
| 20260506203508 | 71 | 268 | 3.0 | 7.0 | 0.00 | 0.06 | 0.06 | 78 | 1012.6 |
| 20260506203013 | 71 | 224 | 2.0 | 5.0 | 0.00 | 0.06 | 0.06 | 78 | 1012.8 |
| 20260506202507 | 70 | 216 | 1.0 | 4.0 | 0.00 | 0.06 | 0.06 | 78 | 1012.8 |
| 20260506202010 | 70 | 221 | 2.0 | 4.0 | 0.00 | 0.06 | 0.06 | 79 | 1012.9 |
| 20260506201506 | 70 | 206 | 1.0 | 4.0 | 0.00 | 0.06 | 0.06 | 79 | 1013.0 |
| 20260506201007 | 70 | 211 | 1.0 | 8.0 | 0.00 | 0.06 | 0.06 | 79 | 1013.0 |
| 20260506200504 | 70 | 231 | 1.0 | 6.0 | 0.00 | 0.06 | 0.06 | 80 | 1013.2 |
| 20260506200005 | 70 | 242 | 2.0 | 7.0 | 0.00 | 0.06 | 0.06 | 81 | 1013.3 |
| 20260506195504 | 70 | 267 | 1.0 | 7.0 | 0.00 | 0.06 | 0.06 | 80 | 1013.2 |
| 20260506195004 | 71 | 261 | 1.0 | 6.0 | 0.00 | 0.06 | 0.06 | 80 | 1013.4 |
| 20260506194504 | 71 | 227 | 2.0 | 7.0 | 0.00 | 0.06 | 0.06 | 79 | 1013.6 |
| 20260506194004 | 70 | 239 | 2.0 | 7.0 | 0.00 | 0.06 | 0.06 | 79 | 1013.7 |
| 20260506193507 | 70 | 226 | 1.0 | 9.0 | 0.00 | 0.06 | 0.06 | 81 | 1013.5 |
| 20260506193002 | 70 | 267 | 2.0 | 9.0 | 0.00 | 0.06 | 0.06 | 82 | 1013.5 |
| 20260506192502 | 70 | 247 | 2.0 | 6.0 | 0.00 | 0.06 | 0.06 | 81 | 1013.5 |
| 20260506192002 | 70 | 207 | 0.0 | 6.0 | 0.00 | 0.06 | 0.06 | 81 | 1013.4 |
| 20260506191502 | 70 | 242 | 2.0 | 6.0 | 0.00 | 0.06 | 0.06 | 83 | 1013.2 |
| 20260506191001 | 69 | 170 | 2.0 | 6.0 | 0.00 | 0.06 | 0.06 | 83 | 1013.2 |
| 20260506190500 | 68 | 113 | 1.0 | 6.0 | 0.00 | 0.06 | 0.06 | 83 | 1013.2 |
| 20260506190059 | 69 | 238 | 2.0 | 6.0 | 0.00 | 0.06 | 0.06 | 82 | 1013.2 |
| 20260506185658 | 69 | 244 | 2.0 | 5.0 | 0.00 | 0.06 | 0.06 | 82 | 1013.3 |
| 20260506184046 | 68 | 215 | 2.0 | 5.0 | 0.00 | 0.06 | 0.06 | 82 | 1013.3 |
| 20260506183511 | 68 | 220 | 1.0 | 4.0 | 0.00 | 0.06 | 0.06 | 85 | 1013.5 |
| 20260506183134 | 68 | 111 | 1.0 | 6.0 | 0.00 | 0.06 | 0.06 | 86 | 1013.3 |
| 20260506182517 | 68 | 207 | 2.0 | 8.0 | 0.00 | 0.06 | 0.06 | 84 | 1013.2 |
| 20260506182122 | 67 | 190 | 0.0 | 8.0 | 0.00 | 0.06 | 0.06 | 86 | 1013.2 |
| 20260506181503 | 67 | 105 | 2.0 | 6.0 | 0.00 | 0.06 | 0.06 | 87 | 1013.0 |
| 20260506181003 | 66 | 143 | 0.0 | 6.0 | 0.00 | 0.06 | 0.06 | 88 | 1013.2 |
| 20260506180502 | 66 | 127 | 1.0 | 6.0 | 0.00 | 0.06 | 0.06 | 86 | 1013.4 |
| 20260506180001 | 66 | 130 | 2.0 | 6.0 | 0.00 | 0.06 | 0.06 | 88 | 1013.5 |
| 20260506175600 | 66 | 26 | 0.0 | 3.0 | 0.00 | 0.06 | 0.06 | 90 | 1013.7 |
| 20260506175103 | 65 | 109 | 0.0 | 3.0 | 0.00 | 0.06 | 0.06 | 89 | 1013.5 |
| 20260506174559 | 65 | 134 | 1.0 | 4.0 | 0.00 | 0.06 | 0.06 | 89 | 1013.4 |
| 20260506174058 | 64 | 138 | 1.0 | 4.0 | 0.01 | 0.06 | 0.06 | 90 | 1013.6 |
| 20260506173558 | 64 | 94 | 1.0 | 5.0 | 0.01 | 0.06 | 0.06 | 90 | 1013.3 |
| 20260506173134 | 64 | 109 | 1.0 | 5.0 | 0.02 | 0.06 | 0.06 | 90 | 1013.3 |
| 20260506172557 | 64 | 111 | 1.0 | 3.0 | 0.02 | 0.06 | 0.06 | 91 | 1013.6 |
| 20260506172056 | 64 | 197 | 0.0 | 2.0 | 0.02 | 0.06 | 0.06 | 90 | 1014.3 |
| 20260506171556 | 64 | 117 | 0.0 | 4.0 | 0.02 | 0.06 | 0.06 | 93 | 1014.3 |
| 20260506171055 | 63 | 126 | 1.0 | 4.0 | 0.02 | 0.06 | 0.06 | 92 | 1014.5 |
| 20260506170555 | 62 | 211 | 0.0 | 2.0 | 0.03 | 0.06 | 0.06 | 92 | 1014.9 |
| 20260506170054 | 62 | 222 | 0.0 | 2.0 | 0.03 | 0.06 | 0.06 | 93 | 1015.3 |
| 20260506165554 | 62 | 337 | 0.0 | 0.0 | 0.03 | 0.06 | 0.06 | 93 | 1014.7 |
| 20260506165055 | 62 | 341 | 0.0 | 0.0 | 0.04 | 0.06 | 0.06 | 93 | 1014.8 |
| 20260506164555 | 62 | 24 | 0.0 | 0.0 | 0.04 | 0.06 | 0.06 | 92 | 1015.2 |
| 20260506164054 | 62 | 259 | 0.0 | 0.0 | 0.03 | 0.05 | 0.05 | 92 | 1015.7 |
| 20260506163553 | 62 | 188 | 0.0 | 1.0 | 0.04 | 0.05 | 0.05 | 92 | 1015.5 |
| 20260506163058 | 62 | 190 | 0.0 | 2.0 | 0.03 | 0.04 | 0.04 | 91 | 1015.5 |
| 20260506162555 | 62 | 298 | 0.0 | 3.0 | 0.03 | 0.04 | 0.04 | 91 | 1015.7 |
| 20260506162053 | 62 | 218 | 1.0 | 3.0 | 0.03 | 0.04 | 0.04 | 92 | 1015.5 |
| 20260506161556 | 62 | 246 | 0.0 | 1.0 | 0.03 | 0.04 | 0.04 | 92 | 1015.6 |
| 20260506161051 | 62 | 246 | 0.0 | 2.0 | 0.03 | 0.04 | 0.04 | 92 | 1015.6 |
| 20260506160551 | 62 | 247 | 0.0 | 2.0 | 0.02 | 0.03 | 0.03 | 91 | 1015.5 |
| 20260506160049 | 62 | 283 | 0.0 | 2.0 | 0.03 | 0.03 | 0.03 | 91 | 1015.2 |
| 20260506155552 | 62 | 283 | 0.0 | 2.0 | 0.03 | 0.03 | 0.03 | 90 | 1015.1 |
| 20260506155049 | 62 | 250 | 0.0 | 3.0 | 0.02 | 0.02 | 0.02 | 90 | 1015.0 |
| 20260506154549 | 62 | 309 | 0.0 | 2.0 | 0.02 | 0.02 | 0.02 | 90 | 1015.1 |
| 20260506154048 | 62 | 53 | 0.0 | 0.0 | 0.01 | 0.01 | 0.01 | 89 | 1015.2 |
| 20260506153551 | 62 | 53 | 0.0 | 0.0 | 0.01 | 0.01 | 0.01 | 90 | 1015.2 |
| 20260506153045 | 61 | 53 | 0.0 | 0.0 | 0.01 | 0.01 | 0.01 | 90 | 1015.0 |
| 20260506152544 | 62 | 77 | 0.0 | 0.0 | 0.01 | 0.01 | 0.01 | 91 | 1014.8 |
| 20260506152044 | 62 | 77 | 0.0 | 0.0 | 0.01 | 0.01 | 0.01 | 91 | 1014.6 |
| 20260506151546 | 61 | 77 | 0.0 | 0.0 | 0.01 | 0.01 | 0.01 | 91 | 1014.3 |
| 20260506151044 | 61 | 77 | 0.0 | 0.0 | 0.01 | 0.01 | 0.01 | 90 | 1014.2 |
| 20260506150543 | 61 | 77 | 0.0 | 0.0 | 0.00 | 0.00 | 0.00 | 90 | 1014.3 |
| 20260506150044 | 61 | 77 | 0.0 | 0.0 | 0.00 | 0.00 | 0.00 | 89 | 1014.3 |
| 20260506145541 | 62 | 77 | 0.0 | 0.0 | 0.00 | 0.00 | 0.00 | 88 | 1014.2 |
| 20260506145041 | 62 | 77 | 0.0 | 0.0 | 0.00 | 0.00 | 0.00 | 86 | 1014.1 |
| 20260506144558 | 62 | 77 | 0.0 | 0.0 | 0.00 | 0.00 | 0.00 | 84 | 1013.8 |
| 20260506144041 | 62 | 77 | 0.0 | 0.0 | 0.00 | 0.00 | 0.00 | 84 | 1013.6 |
| 20260506143541 | 63 | 67 | 0.0 | 0.0 | 0.00 | 0.00 | 0.00 | 82 | 1013.5 |
| 20260506143041 | 63 | 67 | 0.0 | 0.0 | 0.00 | 0.00 | 0.00 | 82 | 1013.5 |
| 20260506142541 | 63 | 67 | 0.0 | 1.0 | 0.00 | 0.00 | 0.00 | 81 | 1013.8 |
| 20260506142040 | 63 | 67 | 0.0 | 1.0 | 0.00 | 0.00 | 0.00 | 80 | 1013.9 |
| 20260506141540 | 63 | 69 | 0.0 | 0.0 | 0.00 | 0.00 | 0.00 | 80 | 1014.0 |
| 20260506141040 | 63 | 69 | 0.0 | 1.0 | 0.00 | 0.00 | 0.00 | 80 | 1014.3 |
| 20260506140543 | 62 | 69 | 0.0 | 1.0 | 0.00 | 0.00 | 0.00 | 81 | 1014.3 |
| 20260506140040 | 62 | 246 | 0.0 | 0.0 | 0.00 | 0.00 | 0.00 | 81 | 1014.3 |
| 20260506135538 | 62 | 201 | 0.0 | 0.0 | 0.00 | 0.00 | 0.00 | 81 | 1014.2 |
| 20260506135038 | 62 | 137 | 0.0 | 0.0 | 0.00 | 0.00 | 0.00 | 81 | 1014.2 |
| 20260506134539 | 62 | 76 | 0.0 | 0.0 | 0.00 | 0.00 | 0.00 | 81 | 1014.1 |
| 20260506134039 | 62 | 76 | 0.0 | 0.0 | 0.00 | 0.00 | 0.00 | 80 | 1013.8 |
| 20260506133539 | 62 | 83 | 0.0 | 0.0 | 0.00 | 0.00 | 0.00 | 80 | 1013.7 |
| 20260506133044 | 62 | 128 | 0.0 | 3.0 | 0.00 | 0.00 | 0.00 | 81 | 1013.7 |
| 20260506132538 | 62 | 134 | 0.0 | 3.0 | 0.00 | 0.00 | 0.00 | 80 | 1013.8 |
| 20260506132038 | 62 | 103 | 0.0 | 0.0 | 0.00 | 0.00 | 0.00 | 81 | 1013.9 |
| 20260506131538 | 62 | 103 | 0.0 | 3.0 | 0.00 | 0.00 | 0.00 | 81 | 1013.7 |
| 20260506131038 | 62 | 98 | 0.0 | 3.0 | 0.00 | 0.00 | 0.00 | 81 | 1013.7 |
| 20260506130537 | 62 | 25 | 0.0 | 0.0 | 0.00 | 0.00 | 0.00 | 81 | 1013.9 |
| 20260506130039 | 62 | 25 | 0.0 | 1.0 | 0.00 | 0.00 | 0.00 | 82 | 1014.0 |
| 20260506125536 | 61 | 28 | 0.0 | 3.0 | 0.00 | 0.00 | 0.00 | 82 | 1013.9 |
| 20260506125036 | 61 | 202 | 0.0 | 1.0 | 0.00 | 0.00 | 0.00 | 82 | 1013.9 |
| 20260506124539 | 61 | 209 | 0.0 | 1.0 | 0.00 | 0.00 | 0.00 | 83 | 1014.0 |
| 20260506124036 | 61 | 109 | 0.0 | 1.0 | 0.00 | 0.00 | 0.00 | 83 | 1013.9 |
| 20260506123536 | 60 | 116 | 0.0 | 1.0 | 0.00 | 0.00 | 0.00 | 83 | 1013.8 |
| 20260506123037 | 60 | 323 | 0.0 | 4.0 | 0.00 | 0.00 | 0.00 | 83 | 1013.8 |
| 20260506122537 | 60 | 177 | 1.0 | 4.0 | 0.00 | 0.00 | 0.00 | 83 | 1013.6 |
| 20260506122036 | 60 | 205 | 0.0 | 3.0 | 0.00 | 0.00 | 0.00 | 83 | 1013.6 |
| 20260506121536 | 60 | 115 | 0.0 | 3.0 | 0.00 | 0.00 | 0.00 | 83 | 1013.6 |
| 20260506121036 | 60 | 99 | 1.0 | 3.0 | 0.00 | 0.00 | 0.00 | 83 | 1014.0 |
| 20260506120535 | 60 | 133 | 1.0 | 3.0 | 0.00 | 0.00 | 0.00 | 84 | 1013.8 |
| 20260506120035 | 60 | 109 | 0.0 | 3.0 | 0.00 | 0.00 | 0.00 | 84 | 1014.1 |
| 20260506115535 | 60 | 101 | 0.0 | 2.0 | 0.00 | 0.00 | 0.00 | 84 | 1014.1 |
| 20260506115035 | 60 | 95 | 0.0 | 1.0 | 0.00 | 0.00 | 0.00 | 84 | 1014.3 |
| 20260506114534 | 60 | 95 | 0.0 | 1.0 | 0.00 | 0.00 | 0.00 | 84 | 1014.2 |
| 20260506114034 | 60 | 113 | 0.0 | 1.0 | 0.00 | 0.00 | 0.00 | 84 | 1014.3 |
| 20260506113534 | 59 | 105 | 0.0 | 1.0 | 0.00 | 0.00 | 0.00 | 84 | 1014.1 |
| 20260506113034 | 59 | 153 | 0.0 | 1.0 | 0.00 | 0.00 | 0.00 | 84 | 1014.4 |
| 20260506112534 | 59 | 227 | 0.0 | 1.0 | 0.00 | 0.00 | 0.00 | 84 | 1014.3 |
| 20260506112034 | 59 | 100 | 0.0 | 0.0 | 0.00 | 0.00 | 0.00 | 84 | 1014.0 |
| 20260506111534 | 59 | 100 | 0.0 | 0.0 | 0.00 | 0.00 | 0.00 | 85 | 1013.9 |
| 20260506111034 | 59 | 98 | 0.0 | 0.0 | 0.00 | 0.00 | 0.00 | 85 | 1013.9 |
| 20260506110533 | 59 | 129 | 0.0 | 0.0 | 0.00 | 0.00 | 0.00 | 84 | 1014.1 |
| 20260506110036 | 59 | 129 | 0.0 | 0.0 | 0.00 | 0.00 | 0.00 | 84 | 1014.0 |
| 20260506105534 | 59 | 129 | 0.0 | 3.0 | 0.00 | 0.00 | 0.00 | 84 | 1013.8 |
| 20260506105033 | 59 | 129 | 0.0 | 3.0 | 0.00 | 0.00 | 0.00 | 84 | 1013.7 |
| 20260506104533 | 59 | 113 | 0.0 | 1.0 | 0.00 | 0.00 | 0.00 | 83 | 1013.7 |
| 20260506104032 | 59 | 108 | 0.0 | 1.0 | 0.00 | 0.00 | 0.00 | 83 | 1013.6 |
| 20260506103533 | 59 | 148 | 0.0 | 1.0 | 0.00 | 0.00 | 0.00 | 84 | 1013.7 |
| 20260506103031 | 59 | 161 | 0.0 | 0.0 | 0.00 | 0.00 | 0.00 | 84 | 1013.7 |
| 20260506102532 | 59 | 115 | 0.0 | 0.0 | 0.00 | 0.00 | 0.00 | 84 | 1013.4 |
| 20260506102032 | 59 | 124 | 0.0 | 0.0 | 0.00 | 0.00 | 0.00 | 84 | 1013.4 |
| 20260506101532 | 59 | 97 | 0.0 | 0.0 | 0.00 | 0.00 | 0.00 | 83 | 1013.3 |
| 20260506101032 | 59 | 97 | 0.0 | 0.0 | 0.00 | 0.00 | 0.00 | 83 | 1013.4 |
| 20260506100533 | 59 | 97 | 0.0 | 0.0 | 0.00 | 0.00 | 0.00 | 83 | 1013.2 |
| 20260506100030 | 59 | 97 | 0.0 | 0.0 | 0.00 | 0.00 | 0.00 | 84 | 1013.3 |
| 20260506095530 | 59 | 103 | 0.0 | 0.0 | 0.00 | 0.00 | 0.00 | 84 | 1013.3 |
| 20260506095030 | 59 | 85 | 0.0 | 1.0 | 0.00 | 0.00 | 0.00 | 84 | 1013.4 |
| 20260506094530 | 59 | 85 | 0.0 | 2.0 | 0.00 | 0.00 | 0.00 | 84 | 1013.6 |
| 20260506094028 | 59 | 121 | 0.0 | 2.0 | 0.00 | 0.00 | 0.00 | 84 | 1013.5 |
| 20260506093529 | 59 | 148 | 0.0 | 1.0 | 0.00 | 0.00 | 0.00 | 83 | 1013.5 |
| 20260506093037 | 59 | 148 | 0.0 | 3.0 | 0.00 | 0.00 | 0.00 | 83 | 1013.5 |
| 20260506092529 | 59 | 130 | 1.0 | 3.0 | 0.00 | 0.00 | 0.00 | 83 | 1013.5 |
| 20260506092028 | 59 | 70 | 0.0 | 1.0 | 0.00 | 0.00 | 0.00 | 82 | 1013.6 |
| 20260506091531 | 60 | 56 | 0.0 | 1.0 | 0.00 | 0.00 | 0.00 | 82 | 1013.5 |
| 20260506091028 | 60 | 110 | 0.0 | 4.0 | 0.00 | 0.00 | 0.00 | 82 | 1013.5 |